Погода Саран-Пауль

Погода Саран-Пауль : погода сейчас, прогноз погоды и архив. Всё, что Вы хотите узнать о погоде Саран-Пауль!

Хотите узнать прогноз погоды Саран-Пауль? Тогда Вам сюда: Погода Саран-Пауль

Поиск расширенной информации на нашем сайте:

Другие новости

Новости СМИ2

Главная страница сайта

Новости сайта

03.07.2017

Напоминаем, что на нашем специализированном сайте Метеоцентр.Азия вы можете получить высокодетализированные автоматические прогнозы погоды по пунктам России, СНГ и мира в авиационном формате (включающие направление и скорость ветра, видимость, явления погоды, количество и форму облачности, нижнюю и верхнюю границу облачности).

Рекомендуем: производство дверей клин на сайте klinskiedveri.ru

Погода Саран-Пауль - сегодня

Время (UTC), дата Ветер
(°,м/с) 
Видим.   Явления Облачность Т
(°С)
Тd
(°С)
f(%) Тe
(°С)
Pmin
(гПа)
dP
(гПа)
Po
(мм)
O2
(г/м3)
Тmin Tmax R s Состояние
почвы
21 15.10.17 050 (СВ) 6000 м  слаб. ливневой снег{морось}  10/10 300 м кучево-дожд. 
[Cb cap]
-0.9 -1.6 95 -2  1019.4  0.5  762  308           
00 16.10.17 040 (СВ) 7000 м  слаб. ливневой снег{морось}  10/10 600 м кучево-дожд. 
[Cb cap]
-1.1 -1.5 97 -1  1019.6  0.2  762  308           
03 16.10.17 050 (СВ) 4000 м  слаб. ливневой снег  10/10 300 м кучево-дожд. 
[Cb cap]
-1.1 -1.5 97 -1  1020.4  0.8  763  309  -1.1    <0.5  равномерный
сухой снег
100% 
06 16.10.17 070 (В) 2000 м  слаб. ливневой снег  10/10 300 м кучево-дожд. 
[Cb cap]
-0.7 -1 98 1020.9  0.5  763  308           
09 16.10.17 060 (СВ) 2000 м  слаб. ливневой снег  10/10 300 м кучево-дожд. 
[Cb cap]
-0.2 -0.6 97 1020.8  0.1  763  308           
12 16.10.17 тихо ()   4000 м  слаб. ливневой снег  10/10 300 м кучево-дожд. 
[Cb cap]
-0.2 -0.5 98 -0  1020.8  0.1  763  308           
15 16.10.17 070 (В) 3500 м  слаб. ливневой снег  10/10 300 м кучево-дожд. 
[Cb cap]
-0.1 -0.3 99 +1  1020  -0.8  762  307    -0.1  0.7     
18 16.10.17 050 (СВ) 6000 м  слаб. ливневой снег  10/10 300 м кучево-дожд. 
[Cb cap]
-0.1 -0.3 99 +1  1018.4  -1.6  761  307           
21 16.10.17 тихо ()   7000 м  слаб. ливневой снег  10/10 600 м кучево-дожд. 
[Cb cap]
-0.1 -0.3 99 -0  1015.8  -2.6  759  306           
00 17.10.17 тихо ()   6000 м  слаб. ливневой снег  10/10 600 м кучево-дожд. 
[Cb cap]
-0 -0.2 99 1013.4  -2.4  757  305           
03 17.10.17 тихо ()   1000 м  слаб. дождь{ливн. осадки} [диам. гололёда 2 мм]  10/10 300 м 
[Ns]
-0.1 -0.2 99 -0  1011.2  -2.4  756  305  -0.1    12  равномерный
мокрый или
старый снег
100% 
06 17.10.17 120 (ЮВ) 1000 м  слаб. дождь{ливн. осадки}  10/10 300 м 
[Ns]
+0.6 +0.4 99 1008.7  -2.5  754  303           
09 17.10.17 110 (В) 2000 м  слаб. снег{дождь}  10/10 300 м 
[Ns]
+0.6 +0.4 99 1006.8  -1.8  752  302           
12 17.10.17 090 (В) 2000 м  слаб. дождь{снег}  10/10 300 м 
[Ns]
+0.9 +0.6 98 +2  1005  -1.8  751  302           
15 17.10.17 080 (В) 4900 м  дымка{дождь}  10/10 300 м 
[Ns]
+0.9 +0.7 99 +2  1003.4  -1.6  750  301    +1.1     
18 17.10.17 090 (В) 6000 м  слаб. ливневой дождь  10/10 600 м кучево-дожд. 
[Cb cap]
+1.3 +1.1 99 +2  1001.1  -2.3  748  300           
21 17.10.17 080 (В) 7000 м  слаб. ливневой дождь  10/10 600 м кучево-дожд. 
[Cb cap]
+1.7 +1.5 99 +2  998.4  -2.6  746  299           
00 18.10.17 110 (В) 7000 м  слаб. ливневой дождь  10/10 600 м кучево-дожд. 
[Cb cap]
+2.7 +2.5 99 +3  995.9  -2.5  744  297           
03 18.10.17 130 (ЮВ) 2000 м  слаб. ливневой дождь  10/10 600 м кучево-дожд. 
[Cb cap]
+2.6 +2.4 99 +3  994.1  -1.8  743  296  +0.9    равномерный
мокрый или
старый снег
100% 
06 18.10.17 230 (ЮЗ) 2000 м  слаб. дождь{ливн. осадки}  10/10 300 м 
[Ns]
+1.4 +1.2 99 +2  993.3  -0.8  742  297           
09 18.10.17 200 (Ю) 10 км  {дождь}  10/10 300 м 
[Frnb|Ns]
+3.1 +2.7 97 +3  992.8  -0.5  742  295           
12 18.10.17 080 (В) 10 км  слаб. дождь  10/3 300 м средняя 
[Frnb|As op]
+3.2 +2.7 97 +4  992.2  -0.5  742  295           
15 18.10.17 170 (Ю) 11000 м  {дождь}  10/8 300 м средняя 
[Frnb|As op]
+2.9 +2.2 95 +4  991.7  -0.5  741  295    +4     
18 18.10.17 180 (Ю) 13000 м  {дождь}  10/6 300 м средняя 
[Frnb|As op]
+1.9 +1.2 95 +1  991.8  0.1  741  296           
21 18.10.17 150 (ЮВ) 11000 м    10/4 300 м средняя 
[Frnb|As op]
+1.5 +0.7 94 +1  992.2  0.3  741  297           
Время (UTC), дата Ветер
(°,м/с) 
Видим.   Явления Облачность Т
(°С)
Тd
(°С)
f(%) Тe
(°С)
Pmin
(гПа)
dP
(гПа)
Po
(мм)
O2
(г/м3)
Тmin Tmax R s Состояние
почвы

Для получения пояснительной информации подведите курсор к названию столбца.

ПОГОДА Саран-Пауль - архив

Всё, что Вы хотите узнать о погоде Саран-Пауль - удобно и подробно!

Выберите нужную дату (начиная с 1 января 2015* года) и нажмите кнопку "Найти".
Будут отображены архивные сводки погоды по пункту Саран-Пауль, начиная с указанной даты.


Отображать данные в формате CSV (для использования в таблицах Excel)


Внимание! Наш архив погоды предназначен исключительно для личного некоммерческого использования в познавательных целях. Если Вам необходимы официальные справки о состоянии погоды (для производственных, юридических, коммерческих и т.п. целей), обращайтесь в органы Росгидромета.

*Примечание: данная дата относится к архиву по метеостанциям СССР (Россия, СНГ, Балтия).
Архив по метеостанциям Зарубежной Европы и Азии (кроме Китая) хранится 10 дней, по другим регионам земного шара (Китай, Африка, Америка, Австралия, Океания) - 1 день.

Саран-Пауль - район местоположения метеостанции


Название, широта, долгота, высота метеостанции:
Саран-Пауль 64.3°ш. 60.9°д. 29 м над ур. моря [Российская Федерация]

Дополнительная информация

В oтличие oт бoльшинства пoгoдных сайтoв мы публикуем пoдрoбную метеoинфoрмацию в детальнoм прoфессиoнальнoм фoрмате.

Характеристики температуры и влажнoсти вoздуха измеряются на высoте 2 м в тени вдали oт зданий и деревьев.
Скoрoсть ветра измеряется на высoте 10 м (на урoвне рoста челoвека скoрoсть ветра ниже в 1.5-2 раза). Если метеoстанция нахoдится в гoрoде или в лесу, тo скoрoсть ветра занижена на 2-4 м/с пo сравнению с oткрытым местoм. Скoрoсть ветра над акватoриями крупных рек и oзёр, а также на вершинах хoлмoв на 2-5 м/с выше, чем в oбычных услoвиях.
Атмoсфернoе давление в разных тoчках местнoсти мoжет значительнo oтличаться oт давления на метеoстанции, в зависимoсти oт услoвий рельефа (при пoдъёме на 10 м давление пoнижается примернo на 1 мм рт.ст.).